Location: Brno
(49.2000°N, 16.6330°E)
Time: 10:54:34
(UTC+01:00)

BREEZE M DEB (TANK) - Visible Passes

Search period start: 11 December 2016 00:00
Search period end: 21 December 2016 00:00
Orbit: 288 x 12008 km, 49.5° (Epoch: 10 December)

Date Brightness Start Highest point End Pass type
(mag) Time Alt. Az. Time Alt. Az. Time Alt. Az.
11 Dec 2.4 16:51:51 10° W 16:54:32 88° S 17:01:19 10° E visible
11 Dec 6.2 20:51:58 10° W 20:58:06 26° SSW 20:58:08 26° SSW visible
12 Dec 5.7 20:05:23 10° W 20:10:46 31° SSW 20:15:21 25° S visible
13 Dec 5.1 19:19:01 10° W 19:23:38 38° SSW 19:37:33 10° SE visible
14 Dec 4.4 18:32:46 10° W 18:36:42 45° SSW 18:48:40 10° SE visible
15 Dec 3.7 17:46:35 10° W 17:49:56 56° SSW 17:59:46 10° SE visible
15 Dec 7.0 21:50:55 10° WSW 21:55:27 12° SW 22:02:09 10° SSW visible
16 Dec 2.9 17:00:26 10° W 17:03:17 69° SSW 17:11:00 10° ESE visible
16 Dec 6.7 21:02:06 10° WSW 21:07:43 17° SW 21:18:25 10° S visible
17 Dec 6.4 20:14:41 10° WSW 20:20:06 21° SSW 20:32:17 10° S visible
18 Dec 5.9 19:27:48 10° W 19:32:40 26° SSW 19:44:54 10° SSE visible
19 Dec 5.2 18:41:12 10° W 18:45:25 32° SSW 18:56:48 10° SSE visible
20 Dec 4.6 17:54:46 10° W 17:58:21 39° SSW 18:08:21 10° SE visible
